SHIYAN-1 (SY-1)

Last updated on Mon Sep 21 2026 00:02:45 GMT+0000 (Coordinated Universal Time)

1 28220U 04012A 26263.16950269 .00010065 00000+0 28959-3 0 9995 2 28220 97.8632 347.5403 0005949 52.6785 307.4998 15.35987592225662
UTC large
Height (km)
Speed (km/s)
/
Latitude / Longitude
Inclination (degrees)
Orbital Period (minutes)
Azimuth
Elevation
Range (km)
Doppler Factor

Next 0 passes for location: London (51.5072 / 0.1276)

No passes found over London.
SHIYAN-1 (SY-1)